Location: Huberhof
(49.2050°N, 7.4980°E)
Time: 05:06:54
(UTC+00:00)

FALCON 9 DEB - Pass Details

Date: 29 October 2020
Orbit: 382 x 399 km, 53.0° (Epoch: 25 November)

Event Time Altitude Azimuth Distance (km) Brightness Sun altitude
Rises 18:17:00 0° 266° (W) 2,316 8.4 -20.7°
Reaches altitude 10° 18:19:07 10° 272° (W) 1,456 7.0 -21.0°
Enters shadow 18:22:00 46° 329° (NNW) 554 3.8 -21.5°
